Theta_e
308 308 310 310 310 309 305 307 309 308 308 309 307 306 305 307 310 311 312 313 313 313 314 313 313 312 311 310 310 310 310 310 308 308 308 308 308 308 308 307 308 308 308 308
306 308 309 310 309 308 309 309 308 307 308 305 307 307 307 308 311 311 312 313 314 314 313 313 312 312 311 310 310 309 309 309 308 308 307 307 307 307 307 307 307 307 307 307
306 307 307 306 306 308 309 307 309 311 310 306 307 306 308 308 311 312 313 314 314 314 314 313 313 312 312 310 309 309 308 307 307 307 306 306 306 306 306 306 305 305 306 306
308 306 307 304 305 306 308 308 308 308 307 307 308 309 308 309 309 312 314 314 315 315 314 313 313 312 310 309 309 308 307 307 306 306 305 305 305 304 303 303 304 304 304 303
308 307 305 307 307 307 308 308 306 308 308 306 307 308 308 310 309 311 314 314 314 314 314 313 312 312 310 309 308 307 306 306 305 304 304 304 304 302 302 302 302 302 301 301
305 307 308 306 308 306 306 310 307 306 305 304 307 308 307 308 308 309 310 311 311 312 312 312 312 311 310 309 308 307 306 305 304 304 304 304 303 301 300 298 298 299 300 299
307 307 305 303 303 306 310 308 308 308 306 305 306 306 308 309 308 308 309 310 311 309 310 311 311 311 310 308 307 306 304 304 303 303 303 302 301 300 298 297 296 297 298 297
308 308 305 303 307 310 307 311 311 310 307 306 308 309 310 310 309 310 310 311 311 311 311 311 310 309 308 307 305 304 303 303 302 302 301 301 300 299 297 296 296 297 294 290
304 305 303 304 308 309 309 311 311 312 310 308 309 309 310 310 310 310 310 310 310 310 309 309 308 307 306 305 304 303 303 302 302 301 301 300 299 298 296 296 297 294 289 289
305 305 303 306 306 307 310 311 311 311 311 311 311 311 312 311 311 310 309 308 308 308 308 307 306 306 304 303 302 302 302 302 301 301 300 300 298 297 297 297 295 289 289 288
304 304 306 307 307 308 310 310 310 310 310 310 311 311 311 311 312 312 312 309 308 307 307 306 305 304 303 302 302 302 301 301 300 300 299 299 298 298 297 296 291 290 289 288
306 305 305 306 308 308 309 309 310 310 309 308 308 308 308 308 308 308 308 308 308 307 307 306 307 305 303 302 301 301 300 300 300 300 299 298 297 297 296 292 289 289 288 288
305 306 306 307 308 308 309 309 308 308 307 307 307 307 307 307 307 307 307 307 307 306 306 305 305 305 305 302 301 300 300 299 299 299 299 298 298 297 296 291 289 289 289 288
305 306 307 308 308 308 308 308 307 307 306 306 306 305 305 305 305 305 306 306 306 306 306 305 305 305 304 303 302 300 299 298 298 298 299 299 298 298 296 291 290 290 289 289
306 306 306 306 307 307 307 306 306 306 305 305 304 304 304 304 304 304 304 304 305 306 306 305 305 305 304 302 302 301 300 298 298 298 299 298 298 298 296 291 290 289 289 289
304 304 305 306 306 306 305 305 305 304 303 303 303 303 303 302 302 302 301 302 303 304 305 305 305 305 304 303 302 301 300 300 298 298 298 298 298 298 296 291 290 290 289 289
303 304 304 304 304 304 304 303 303 303 302 302 301 301 300 300 300 300 300 300 300 301 302 303 304 304 304 303 302 302 301 300 300 299 298 297 298 298 297 292 291 290 291 290
302 303 303 303 303 303 302 302 301 300 300 300 299 299 299 299 299 299 299 299 298 299 300 301 302 303 303 303 303 302 302 300 300 300 299 298 298 298 298 296 292 291 291 290
300 300 301 301 300 300 300 299 299 299 298 298 298 298 298 297 297 297 298 298 299 299 300 300 301 302 303 302 302 302 302 301 300 300 300 299 298 298 298 298 297 293 291 290
298 298 298 298 298 298 297 296 294 292 291 290 291 292 293 295 296 296 297 297 297 297 297 298 299 300 301 301 301 301 301 301 301 300 300 299 299 299 299 298 298 297 296 293
296 297 295 292 290 290 290 289 289 289 289 288 288 289 289 290 291 293 295 296 295 296 296 297 297 299 299 300 300 300 300 300 300 300 300 300 300 299 299 299 299 299 299 298
295 295 296 296 294 291 289 288 288 288 288 288 288 288 287 287 288 288 290 292 292 294 295 296 296 296 296 297 297 298 298 298 298 298 298 298 298 299 299 299 299 299 299 299
295 295 293 290 289 288 288 288 287 287 287 287 287 287 287 287 287 287 288 287 288 288 290 292 294 295 295 295 295 295 296 296 296 296 296 296 297 297 297 297 298 298 298 298
296 295 292 292 292 291 289 288 287 287 286 286 286 286 287 287 286 286 286 286 286 287 287 287 288 290 291 293 294 294 294 294 294 294 294 294 294 295 295 295 296 296 296 296
296 296 294 294 294 293 291 289 288 287 286 286 286 285 285 285 286 286 286 286 286 286 286 286 287 287 287 289 291 292 293 293 293 292 293 293 293 293 293 293 293 294 294 294
295 294 294 295 295 294 292 290 289 287 286 285 285 285 285 285 285 285 285 286 286 286 286 286 286 286 286 286 287 288 290 291 292 292 291 291 291 291 291 292 292 292 292 292
294 294 294 295 295 293 291 291 288 286 285 286 286 285 285 285 285 285 285 285 285 286 286 286 286 286 286 286 286 286 286 287 289 291 291 291 291 291 291 290 290 290 290 290
Wind_Speed
3 1 3 1 3 7 6 5 6 6 8 12 6 7 10 8 9 17 21 22 22 21 20 17 16 16 16 14 12 10 8 7 7 7 8 9 11 11 11 11 11 11 11 11
3 2 2 2 5 7 9 5 4 3 9 5 13 9 9 6 11 19 22 23 22 21 20 20 18 17 16 14 12 11 10 8 8 8 9 9 9 10 11 11 11 11 12 11
2 2 2 5 5 7 4 4 7 8 8 5 3 4 10 9 15 20 23 24 23 23 22 19 17 16 15 13 13 12 12 10 10 10 10 10 11 11 12 12 11 11 9 9
1 2 1 3 1 3 7 3 8 6 4 5 7 11 11 11 12 18 21 23 23 21 21 19 17 17 16 16 14 14 13 13 12 11 11 11 10 9 9 10 11 11 10 9
2 2 5 2 1 2 2 4 4 11 11 9 7 5 11 12 13 14 18 19 20 18 18 17 18 18 19 17 16 15 14 13 13 12 11 11 10 9 9 10 11 11 10 10
1 1 2 2 2 2 2 3 2 4 7 6 9 4 4 7 7 12 13 14 15 16 17 19 20 20 20 19 17 15 14 14 14 13 12 11 9 10 10 11 11 12 12 13
3 1 5 5 4 4 2 3 7 6 7 7 4 5 3 2 4 9 9 9 10 12 15 16 18 19 19 18 17 13 15 15 15 13 13 11 9 11 13 13 13 14 15 15
2 1 5 3 1 1 4 4 4 7 4 5 3 3 3 4 3 4 5 6 8 9 11 13 15 16 16 16 13 15 15 15 14 13 13 13 12 13 15 16 16 16 16 14
6 5 4 4 6 3 5 4 3 6 5 4 3 2 3 3 2 0 1 3 4 6 9 11 12 13 14 13 15 16 16 15 14 14 14 13 14 16 18 18 18 18 16 14
1 1 4 5 6 6 3 2 3 2 5 7 7 8 7 5 6 6 4 3 5 6 8 9 10 11 13 14 15 15 15 15 15 15 14 14 15 16 19 20 20 19 17 14
3 5 8 5 6 4 4 3 3 3 3 3 3 3 2 3 4 5 8 8 5 7 7 8 10 10 12 14 15 16 17 16 16 15 15 15 16 17 19 18 17 15 13 13
3 3 3 5 8 5 4 5 5 4 3 3 2 3 3 3 4 5 6 8 9 9 10 10 11 10 11 13 15 16 18 18 18 16 17 16 17 20 22 20 19 18 17 14
3 11 9 8 4 3 4 6 5 4 3 2 3 3 4 5 6 6 7 7 7 8 10 12 12 12 10 12 14 17 18 19 18 18 18 18 20 23 23 23 22 20 17 15
15 9 6 4 1 2 4 5 4 3 1 2 3 3 4 5 7 9 9 9 9 9 10 11 13 12 11 12 12 14 17 20 20 20 19 19 22 24 23 23 21 18 17 15
8 5 6 2 3 4 5 4 3 1 1 2 3 3 4 6 8 10 11 12 12 12 10 10 11 12 12 13 13 13 14 16 18 20 19 20 22 25 24 24 23 20 19 19
9 4 5 4 4 4 4 3 2 2 4 5 7 8 11 13 13 13 14 15 15 13 12 13 13 10 12 14 13 14 13 13 16 19 20 23 24 27 27 26 25 23 23 20
4 2 3 4 4 3 2 1 3 5 7 9 11 12 13 13 13 13 13 15 16 15 14 14 13 13 13 13 14 14 14 13 14 18 22 24 25 28 28 27 26 26 24 21
3 2 2 4 5 4 2 3 5 6 7 8 9 11 12 12 13 13 14 14 15 13 12 13 13 12 13 14 14 15 16 15 17 20 21 24 26 28 29 29 28 28 26 24
2 2 2 3 3 2 1 1 2 4 5 7 9 10 11 12 12 13 13 12 13 14 11 10 11 13 15 14 15 16 17 18 19 21 23 24 27 28 30 31 30 30 28 27
1 2 3 4 5 4 3 3 4 6 8 9 10 10 10 11 12 12 12 11 10 12 14 13 12 12 15 15 16 19 20 21 22 22 24 27 29 31 32 32 32 32 31 31
1 3 5 6 6 7 6 5 5 6 7 9 11 11 12 12 13 13 12 10 9 11 13 13 14 14 15 16 18 20 21 23 25 26 26 28 29 31 33 35 35 35 35 34
0 1 1 3 5 4 5 6 7 8 9 9 10 11 12 12 12 11 11 11 13 14 14 13 14 14 15 16 19 20 22 23 25 26 28 29 30 31 32 33 34 34 35 35
1 1 3 3 3 4 5 6 8 9 10 11 11 11 12 12 14 14 13 13 14 15 15 15 15 15 15 15 16 18 20 22 24 26 27 28 28 29 30 30 31 31 31 31
4 1 4 5 6 7 8 8 9 10 11 11 12 12 13 13 10 12 15 16 16 16 16 17 17 16 16 16 15 15 17 19 21 22 23 24 26 27 27 28 29 30 30 30
8 7 6 8 9 9 9 9 10 12 12 11 12 12 13 15 16 16 17 16 16 17 17 17 17 17 16 16 16 16 16 16 18 19 21 23 24 25 26 27 27 28 28 29
11 11 10 10 9 9 9 10 12 13 13 12 12 13 13 14 15 16 16 17 17 18 18 18 18 18 18 17 17 17 17 17 16 17 18 20 21 22 23 24 25 25 25 26
13 13 13 12 10 9 10 12 13 12 13 14 14 14 15 14 15 17 17 18 18 19 19 19 19 19 19 20 19 18 18 18 18 17 17 18 19 20 21 21 21 22 22 22
Wind_Direction
44 148 105 137 174 169 175 187 170 206 214 247 278 290 317 312 192 187 178 184 190 194 197 201 204 203 210 212 217 222 230 242 254 263 265 263 258 258 255 251 247 243 244 244
20 70 94 240 209 203 219 221 246 194 266 199 258 293 297 259 203 194 195 195 198 203 206 207 211 213 215 219 223 233 241 246 258 262 261 256 257 254 251 249 250 245 240 241
312 343 315 309 227 189 183 198 205 218 241 177 226 240 278 254 218 210 206 205 209 213 216 218 220 221 223 226 230 237 242 245 249 254 257 261 262 255 246 242 240 239 235 231
113 6 324 246 48 215 212 224 216 249 224 215 234 262 263 274 242 221 218 219 222 225 227 224 222 224 223 228 233 236 240 246 250 252 259 269 268 259 251 244 237 230 222 211
126 212 287 39 11 123 166 307 234 242 258 233 245 260 269 269 255 236 230 231 237 239 238 235 232 228 229 233 236 240 245 253 255 253 259 268 265 255 246 235 226 211 197 184
129 142 239 241 323 221 159 331 352 232 270 240 192 213 257 304 241 225 227 231 233 235 236 233 231 229 232 237 241 246 248 251 249 251 260 268 261 251 236 221 211 196 181 171
173 253 284 249 264 152 82 249 327 325 307 188 186 208 307 304 186 198 209 223 231 228 233 235 231 231 233 237 244 245 245 246 245 246 256 254 245 236 219 207 199 188 176 173
103 191 291 194 88 174 222 317 329 4 31 180 148 118 73 88 140 182 211 225 231 231 229 226 224 227 232 240 241 243 248 247 244 249 251 245 236 225 209 202 197 185 180 181
172 213 247 249 240 229 318 283 0 28 46 106 135 95 94 94 93 104 234 233 226 222 222 222 223 228 237 240 243 246 242 238 244 249 247 241 232 218 205 199 195 189 188 190
74 269 252 289 287 265 250 236 51 66 95 98 99 91 79 67 61 33 2 286 255 234 226 227 232 237 242 243 244 241 237 239 243 244 243 239 226 216 208 199 192 194 197 199
270 301 305 327 283 264 216 193 161 141 125 98 98 85 37 345 343 319 327 318 284 259 248 241 244 252 256 250 243 239 239 240 241 241 242 236 229 217 202 199 201 204 205 211
231 300 270 301 335 235 206 171 161 154 133 98 70 43 8 345 325 302 284 275 279 271 257 252 255 259 265 258 248 244 243 242 243 243 243 233 223 202 196 200 205 207 211 215
310 318 304 292 325 203 199 168 160 150 128 84 40 16 358 351 341 334 321 302 287 276 263 255 254 258 266 261 256 252 251 248 244 241 236 230 217 205 205 206 210 214 218 221
311 294 280 257 245 183 185 177 168 154 106 30 4 357 5 5 354 342 329 315 301 289 276 267 262 263 266 267 262 258 258 253 241 240 237 231 220 213 211 216 221 222 224 226
352 265 250 267 201 177 175 180 194 224 310 315 315 317 328 335 332 329 325 318 309 298 291 283 278 280 265 264 261 267 273 254 236 231 231 230 224 218 217 221 225 226 227 229
307 287 232 209 182 177 186 196 233 290 308 307 306 303 305 306 307 310 312 308 300 296 290 281 275 282 268 262 264 263 263 257 239 232 231 229 224 220 222 225 229 231 232 235
295 246 178 168 172 177 205 276 310 313 311 307 306 305 303 304 305 306 305 305 299 292 283 284 286 274 270 267 263 263 263 260 248 237 232 235 231 227 229 231 235 238 240 240
261 233 207 207 189 181 217 275 295 302 309 317 318 319 317 315 314 312 308 307 304 293 290 275 271 268 267 267 266 267 265 260 256 250 241 240 242 234 234 238 241 243 244 243
201 169 148 154 167 174 249 312 352 353 350 348 343 345 342 331 322 316 312 310 306 298 292 285 274 266 263 261 263 264 264 264 257 255 254 248 245 243 240 243 246 247 249 247
106 126 116 98 84 78 56 26 2 343 335 334 332 329 331 338 342 341 334 331 320 310 309 307 299 285 272 267 262 260 263 264 264 260 258 255 251 249 247 246 249 251 252 252
207 141 115 91 64 39 20 7 354 347 344 343 342 343 342 341 336 333 335 342 335 325 319 312 302 288 277 272 266 266 265 265 264 264 263 263 262 257 256 256 255 255 256 254
136 100 121 101 45 5 347 353 355 353 351 350 347 344 345 344 340 346 340 339 334 330 330 327 319 310 297 283 273 269 269 269 269 267 266 265 266 266 265 264 264 264 264 264
5 19 25 23 348 347 347 349 351 350 347 345 342 344 347 350 342 343 345 341 337 336 334 327 320 319 316 304 294 282 275 272 270 269 269 269 270 270 270 270 271 271 270 269
272 292 328 320 321 324 327 335 338 339 338 335 334 335 336 337 345 339 338 335 333 334 334 330 326 323 316 313 311 304 291 280 274 272 272 271 272 271 271 272 272 272 271 271
288 294 294 302 305 306 312 321 328 329 329 329 326 326 328 327 329 331 329 329 329 327 327 326 324 322 320 317 311 306 306 298 288 280 275 272 271 271 271 271 271 272 272 270
270 275 282 293 297 298 307 320 323 322 321 324 325 320 321 320 321 322 323 322 323 323 323 322 321 319 319 317 314 310 306 301 297 291 284 280 278 275 274 272 272 271 271 272
276 273 275 287 295 289 303 316 320 320 320 321 322 320 319 320 322 322 322 323 322 321 320 319 317 316 316 314 312 310 307 302 298 294 289 286 283 281 278 275 273 272 271 270